星链-11281 (STARLINK-11281)

导读 | 豆包AI

STARLINK-11281是美国于2024年9月5日发射的Starlink星座卫星,隶属于SpaceX公司开发的星链互联网卫星星座项目。星链项目旨在为全球提供低延迟、高速率的卫星互联网覆盖服务,该卫星入轨后将参与星座组网,进一步扩充星链卫星规模,提升星座在不同区域的网络服务能力与覆盖稳定性。

基本信息
目录编号:
60996
目录名称:
STARLINK-11281
国际标识:
2024-158G
轨道中心:
EARTH
卫星名称:
星链-11281
卫星全名:
星链-11281 (STARLINK-11281)
卫星状态:
在轨 (已飞行627 天)
发射日期:
2024-09-05 UTC
国别 :
美国 (US)
星等 :
--
轨道信息
数据来源 国际轨道数据
星历时间: 2026-05-24T00:50:47+0800
1天前
查看轨道信息
半长轴: 6737.875km
偏心率: 0.0000638
轨道倾角: 53.158°
近地点辐角 63.446°
升交点赤经 271.661°
平近点角 296.662°
近地点: 359.308km
远地点: 360.168km
周期: 91.737分钟
每日圈数: 15.697063
详细信息
固有亮度:
5
最大亮度:
2.5
卫星平台:
Starlink V1.0
覆盖范围:
全球
运营商:
太空探索技术公司
运营商所在国:
美国
制造商(研发单位):
太空探索技术公司
制造商所在国:
美国
使用方式:
暂无
卫星简介
Starlink 计划是 SpaceX 推出的全球卫星互联网项目,通过发射低轨道卫星,为全球尤其是偏远地区提供高速、低延迟的互联网服务。自 2019 年起,Starlink 已部署数千颗卫星,旨在缩小全球数字鸿沟,推动互联网普及。该项目还为军事、航空等行业提供通信支持,带来广泛经济效益。
2D轨道图
3D轨道图
轨道高度分析图
轨道倾角分析图
轨道综合分析图
查看轨道综合分析图